Location: Chakepay
(13.3931°S, 72.1925°W)
Time: 23:28:18
(UTC+00:00)

Cosmos 2227 Rocket - Pass Details

Date: 15 November 2019
Orbit: 838 x 846 km, 71.0° (Epoch: 14 December)

Event Time Altitude Azimuth Distance (km) Brightness Sun altitude
Rises 00:14:23 0° 348° (NNW) 3,378 5.2 -18.7°
Reaches altitude 10° 00:16:49 10° 350° (N) 2,447 4.5 -19.3°
Maximum altitude 00:22:25 75° 74° (ENE) 870 2.0 -20.5°
Drops below altitude 10° 00:28:04 10° 159° (SSE) 2,463 4.7 -21.7°
Sets 00:30:31 0° 161° (SSE) 3,402 5.4 -22.3°
